Location: Mizzole
(45.4833°N, 11.0500°E)
Time: 17:13:26
(UTC+00:00)

Cosmos 1937 Rocket - Pass Details

Date: 21 October 2019
Orbit: 747 x 780 km, 74.0° (Epoch: 22 November)

Event Time Altitude Azimuth Distance (km) Brightness Sun altitude
Rises 17:51:30 0° 345° (NNW) 3,205 6.9 -16.6°
Reaches altitude 10° 17:54:08 10° 356° (N) 2,275 6.0 -17.1°
Maximum altitude 17:58:41 31° 58° (ENE) 1,298 4.2 -17.9°
Enters shadow 17:59:13 30° 70° (ENE) 1,316 4.2 -17.9°
